SCP
0 0 0 0 0 0 0 0 0 0 0 0 0 0 0 0 0 0 -0 -0 0 -0 -0 0 0 0 0 0 0 0 0 0 0 0 0 0 0 0
0 0 0 0 0 0 0 0 0 0 0 0 0 0 0 0 0 0 0 0 -0 -0 -0 -0 0 0 0 0 0 0 0 0 0 0 0 0 0 0
0 0 0 0 0 0 0 0 0 0 0 0 0 0 0 0 0 0 0 0 0 0 0 0 0 0 0 0 0 0 0 0 0 0 0 0 0 0
0 0 0 0 0 0 0 0 0 0 0 0 0 0 0 0 0 0 0 0 0 0 0 0 -0 -0 0 0 0 0 0 0 0 0 0 0 0 0
0 0 0 0 0 0 0 0 0 0 0 0 0 0 0 0 0 0 0 0 0 0 0 0 0 0 0 0 0 0 0 0 0 0 0 0 0 0
0 0 0 0 0 0 0 0 0 0 0 0 0 0 0 0 0 0 0 0 0 0 0 0 0 0 0 0 0 0 0 0 0 0 0 0 0 0
0 0 0 0 0 0 0 0 0 0 0 0 0 0 0 0 0 0 0 0 0 0 0 0 0 0 0 0 0 0 0 0 0 0 0 0 0 0
0 0 0 0 0 0 0 0 0 0 0 0 0 0 0 0 0 0 0 0 0 0 0 0 0 0 0 0 0 0 0 0 0 0 0 -0 0 0
0 0 0 0 0 0 0 0 0 0 0 0 0 0 0 0 0 0 0 0 0 0 0 0 0 0 0 0 0 0 0 0 0 0 0 0 -0 0
0 0 0 0 0 0 0 0 0 0 0 0 0 0 0 0 0 0 0 0 0 0 0 0 0 0 0 0 0 0 -0 0 0 0 0 0 -0 -0
0 0 0 0 0 0 0 0 0 0 0 0 0 0 0 0 0 0 0 0 0 0 0 0 0 0 0 0 0 0 0 0 0 0 0 0 0 0
0 0 0 0 0 0 0 0 0 0 0 0 0 0 0 0 0 0 0 0 0 0 0 0 0 0 -0 0 0 0 0 0 0 0 0 0 0 0
0 0 0 0 0 0 0 0 0 0 0 0 0 0 0 0 0 0 0 0 0 0 0 0 0 0 -0 0 0 0 0 0 0 0 0 0 0 0
0 0 0 0 0 0 0 0 0 0 0 0 0 0 0 0 0 0 0 0 0 0 0 0 0 0 0 0 0 0 0 0 0 0 0 0 0 0
0 0 0 0 0 0 0 0 0 0 0 0 0 0 0 0 0 0 0 0 0 0 0 0 0 0 -0 0 0 0 0 0 0 0 0 0 0 0
0 0 0 0 0 0 0 0 0 0 0 0 0 0 0 0 0 0 0 0 0 0 0 0 0 0 0 0 -0 0 0 0 0 0 0 0 0 0
0 0 0 0 0 0 0 0 0 0 0 0 0 0 0 0 0 0 0 0 0 0 0 0 0 0 0 0 0 0 0 0 0 0 0 0 0 0
0 0 0 0 0 0 0 0 0 0 0 0 0 0 0 0 0 0 0 0 0 0 0 0 0 0 0 0 0 0 0 0 0 -0 0 0 0 0
0 0 0 0 0 0 0 0 0 0 0 0 0 0 0 0 0 0 0 0 0 0 0 0 0 0 0 -0 -0 0 0 0 0 0 0 0 0 0
0 0 0 0 0 0 0 0 0 0 0 0 0 0 0 0 0 0 0 0 0 0 0 0 0 0 0 0 0 0 0 0 0 0 0 0 0 0
0 0 0 0 0 0 0 0 0 0 0 0 0 0 0 0 0 0 0 0 0 0 -0 0 0 -0 0 0 0 0 0 0 0 0 0 0 0 0
0 0 0 0 0 0 0 0 0 0 0 0 0 0 0 0 0 0 0 0 0 -0 -0 -0 0 -0 -0 -0 0 0 0 0 0 0 0 0 0 0
0 0 0 0 0 0 0 0 0 0 0 0 0 0 0 0 0 0 0 -0 0 0 -0 -0 -0 -0 -0 -0 -0 0 -0 0 0 0 0 0 0 0
Wind_Speed_500mb
24 23 26 27 28 31 30 33 40 55 53 49 49 44 50 54 58 64 66 67 74 74 73 72 77 81 75 78 79 82 74 76 66 73 72 58 56 73
23 27 27 28 33 31 33 34 35 42 56 50 53 58 59 58 59 64 67 75 71 71 70 78 83 80 78 78 82 86 88 77 83 75 75 68 60 56
26 27 30 32 32 35 35 35 37 39 52 56 55 58 66 71 69 66 68 71 72 74 75 80 89 86 84 85 90 87 90 88 83 85 75 84 76 62
28 30 32 33 35 34 35 39 41 41 47 59 59 66 64 67 69 72 75 71 75 77 81 87 81 83 80 90 98 93 93 93 81 79 82 76 77 74
30 33 34 34 35 34 39 42 42 43 45 55 64 63 67 70 71 75 75 85 86 82 79 81 80 82 83 80 81 83 89 90 92 78 82 86 84 79
31 33 33 35 35 39 43 41 42 47 50 53 62 70 73 73 74 78 85 91 94 104 100 94 88 84 86 86 96 100 93 89 87 85 81 83 81 86
31 32 33 38 52 45 40 46 45 50 62 67 69 70 74 74 76 87 91 99 104 102 95 90 82 79 76 84 84 81 82 92 90 92 86 83 84 79
31 34 36 38 35 44 42 45 57 62 60 66 70 74 69 73 78 80 91 93 92 100 84 90 72 75 80 77 81 81 74 78 75 83 91 77 78 83
32 35 37 36 41 41 41 52 55 53 53 58 67 63 76 77 76 83 91 93 95 95 77 81 66 73 77 75 77 80 82 79 68 83 87 73 73 75
32 34 36 38 39 55 63 59 56 53 49 50 59 70 66 67 72 77 84 88 89 88 61 72 76 72 75 77 76 78 80 70 53 72 74 69 70 70
31 34 35 37 42 59 64 54 57 58 48 49 62 62 54 60 66 69 75 82 83 91 72 65 72 71 72 70 63 69 71 58 50 63 65 62 66 67
36 36 36 43 53 61 58 57 61 58 54 60 60 55 53 56 58 59 64 76 81 85 71 56 67 65 70 66 44 49 47 29 33 55 57 51 51 51
34 37 40 49 58 61 56 55 52 58 64 59 54 58 54 55 60 61 65 67 77 81 75 66 64 63 57 69 63 52 36 23 23 32 43 47 49 49
38 40 45 58 64 57 49 50 53 54 51 50 56 58 56 57 60 62 65 67 66 66 62 51 59 54 52 58 64 56 38 7 15 21 21 27 43 46
44 46 58 62 49 46 49 53 50 45 48 53 56 58 61 57 59 61 62 66 67 52 55 61 57 46 44 55 59 55 49 29 17 8 17 17 13 18
44 54 58 46 44 50 52 51 48 46 47 51 54 58 63 55 54 54 59 64 68 63 50 47 49 44 51 44 45 52 43 39 5 12 15 26 26 23
53 55 43 39 44 45 47 49 49 49 49 49 54 56 54 58 55 52 49 58 59 64 63 54 46 43 32 40 45 48 39 32 21 24 24 24 29 38
50 39 37 42 44 46 47 48 47 49 48 51 52 51 55 54 56 55 46 49 54 56 58 58 51 49 38 28 28 42 42 35 35 31 28 31 36 33
34 34 40 42 43 43 45 46 50 49 54 51 51 52 53 53 51 50 49 47 51 54 50 50 48 46 50 50 38 25 40 30 29 32 32 33 39 37
32 37 39 40 42 42 44 46 48 49 49 52 55 52 53 51 53 48 47 48 51 52 52 45 42 45 47 49 49 40 24 33 35 30 30 34 39 39
33 36 38 40 41 42 44 47 48 49 52 54 53 53 52 50 50 47 47 47 48 47 49 47 44 47 48 43 37 37 37 30 30 33 34 41 42 40
35 38 39 40 42 43 46 47 48 48 49 50 52 52 52 48 51 50 47 47 45 46 49 49 49 44 46 42 44 46 38 30 23 28 37 40 42 30
36 39 40 42 43 44 44 45 47 49 48 49 48 49 52 55 50 49 47 45 43 45 46 49 50 45 41 44 46 49 42 37 28 22 20 20 25 33
Wind_Direction_500mb
334 329 330 323 319 319 317 317 316 315 316 319 319 318 316 315 313 314 312 311 307 314 317 316 315 303 290 280 272 266 265 257 252 250 251 250 253 246
328 322 323 321 319 318 316 313 311 308 307 313 316 316 315 310 312 309 309 308 312 310 313 310 309 303 290 280 279 268 265 261 261 255 242 241 250 252
321 318 318 319 317 317 314 312 309 309 307 309 311 313 311 309 309 309 310 309 309 304 302 298 297 299 287 275 273 273 266 258 256 258 250 241 245 253
317 317 316 315 315 315 312 309 307 308 308 309 312 312 311 310 308 306 306 306 302 304 303 301 303 302 294 274 271 273 269 264 257 255 254 242 239 240
314 312 313 313 314 313 311 308 307 307 308 307 307 311 310 310 312 312 311 311 309 306 301 296 291 289 286 280 274 273 270 268 254 254 252 246 237 237
309 308 310 309 307 306 310 307 306 306 303 303 304 313 317 319 316 313 311 311 309 310 303 294 294 291 280 276 270 267 269 262 256 249 249 249 238 229
310 308 306 298 307 315 308 306 303 300 301 306 309 310 314 318 317 314 312 313 312 310 305 296 289 288 280 279 276 266 267 264 251 246 247 245 245 228
309 306 305 308 306 302 313 302 291 297 302 305 306 308 310 310 315 316 316 315 309 312 310 296 279 279 275 278 275 268 267 261 254 247 246 239 249 237
307 306 306 306 309 302 292 298 305 300 296 303 301 301 302 310 315 315 316 312 308 307 306 293 287 285 282 281 277 274 279 265 250 244 244 233 243 245
304 304 304 306 307 297 298 306 306 302 299 294 292 295 305 314 313 310 307 309 305 309 299 291 296 289 286 285 280 273 275 276 251 235 232 230 236 239
303 305 304 307 298 290 302 310 305 303 300 292 290 305 313 313 311 312 316 315 304 302 305 294 292 292 295 292 285 276 274 276 239 238 223 225 230 234
307 311 308 300 293 302 309 309 305 306 299 301 307 310 310 311 313 320 314 320 314 304 302 293 294 296 299 297 289 284 274 247 236 234 218 220 223 227
312 310 308 303 308 312 310 310 306 303 302 303 308 303 309 311 315 320 325 320 317 316 308 297 291 292 291 295 306 319 314 252 246 236 221 227 228 228
308 306 302 306 315 315 320 314 311 320 318 305 299 304 305 310 316 322 325 324 322 316 323 295 282 278 285 290 292 303 317 243 215 210 220 235 235 238
310 306 308 315 321 321 313 318 322 317 309 309 305 303 302 305 313 321 324 328 327 328 327 346 293 282 271 272 284 292 314 299 267 272 225 191 263 270
308 312 314 323 327 318 319 318 316 314 313 311 308 306 305 305 306 316 325 330 333 331 333 331 340 318 280 276 274 279 288 303 250 282 269 216 206 217
312 313 317 319 314 314 314 316 317 316 316 313 308 309 313 312 308 314 323 327 330 333 335 334 332 332 313 278 265 266 270 287 287 285 280 268 242 233
310 311 315 311 311 313 314 314 316 317 315 313 315 316 311 310 311 313 318 324 325 329 333 337 337 333 322 322 275 266 265 272 276 281 269 264 257 245
308 307 305 307 309 310 311 313 313 313 315 317 314 313 315 314 314 313 314 317 320 326 331 333 339 343 338 328 313 349 250 271 271 263 266 260 258 256
300 301 303 306 307 309 311 311 311 312 314 314 315 314 313 314 312 312 311 310 313 318 325 329 335 337 332 322 315 322 329 294 283 281 271 271 271 270
303 301 303 306 307 308 307 308 310 313 314 315 314 315 313 312 312 309 307 308 310 313 314 319 322 326 328 333 326 316 307 299 292 269 259 262 263 268
300 303 306 305 305 306 307 309 311 311 312 312 310 312 313 309 308 310 309 307 306 305 305 307 318 326 331 329 324 325 324 318 309 274 260 254 249 253
301 304 305 305 305 305 305 306 305 307 309 309 311 309 307 307 306 306 305 305 303 302 304 309 313 319 325 326 327 326 327 338 331 315 297 276 263 257
Wind_Speed_850mb
24 23 26 27 28 31 30 33 40 55 53 49 49 44 50 54 58 64 66 67 74 74 73 72 77 81 75 78 79 82 74 76 66 73 72 58 56 73
23 27 27 28 33 31 33 34 35 42 56 50 53 58 59 58 59 64 67 75 71 71 70 78 83 80 78 78 82 86 88 77 83 75 75 68 60 56
26 27 30 32 32 35 35 35 37 39 52 56 55 58 66 71 69 66 68 71 72 74 75 80 89 86 84 85 90 87 90 88 83 85 75 84 76 62
28 30 32 33 35 34 35 39 41 41 47 59 59 66 64 67 69 72 75 71 75 77 81 87 81 83 80 90 98 93 93 93 81 79 82 76 77 74
30 33 34 34 35 34 39 42 42 43 45 55 64 63 67 70 71 75 75 85 86 82 79 81 80 82 83 80 81 83 89 90 92 78 82 86 84 79
31 33 33 35 35 39 43 41 42 47 50 53 62 70 73 73 74 78 85 91 94 104 100 94 88 84 86 86 96 100 93 89 87 85 81 83 81 86
31 32 33 38 52 45 40 46 45 50 62 67 69 70 74 74 76 87 91 99 104 102 95 90 82 79 76 84 84 81 82 92 90 92 86 83 84 79
31 34 36 38 35 44 42 45 57 62 60 66 70 74 69 73 78 80 91 93 92 100 84 90 72 75 80 77 81 81 74 78 75 83 91 77 78 83
32 35 37 36 41 41 41 52 55 53 53 58 67 63 76 77 76 83 91 93 95 95 77 81 66 73 77 75 77 80 82 79 68 83 87 73 73 75
32 34 36 38 39 55 63 59 56 53 49 50 59 70 66 67 72 77 84 88 89 88 61 72 76 72 75 77 76 78 80 70 53 72 74 69 70 70
31 34 35 37 42 59 64 54 57 58 48 49 62 62 54 60 66 69 75 82 83 91 72 65 72 71 72 70 63 69 71 58 50 63 65 62 66 67
36 36 36 43 53 61 58 57 61 58 54 60 60 55 53 56 58 59 64 76 81 85 71 56 67 65 70 66 44 49 47 29 33 55 57 51 51 51
34 37 40 49 58 61 56 55 52 58 64 59 54 58 54 55 60 61 65 67 77 81 75 66 64 63 57 69 63 52 36 23 23 32 43 47 49 49
38 40 45 58 64 57 49 50 53 54 51 50 56 58 56 57 60 62 65 67 66 66 62 51 59 54 52 58 64 56 38 7 15 21 21 27 43 46
44 46 58 62 49 46 49 53 50 45 48 53 56 58 61 57 59 61 62 66 67 52 55 61 57 46 44 55 59 55 49 29 17 8 17 17 13 18
44 54 58 46 44 50 52 51 48 46 47 51 54 58 63 55 54 54 59 64 68 63 50 47 49 44 51 44 45 52 43 39 5 12 15 26 26 23
53 55 43 39 44 45 47 49 49 49 49 49 54 56 54 58 55 52 49 58 59 64 63 54 46 43 32 40 45 48 39 32 21 24 24 24 29 38
50 39 37 42 44 46 47 48 47 49 48 51 52 51 55 54 56 55 46 49 54 56 58 58 51 49 38 28 28 42 42 35 35 31 28 31 36 33
34 34 40 42 43 43 45 46 50 49 54 51 51 52 53 53 51 50 49 47 51 54 50 50 48 46 50 50 38 25 40 30 29 32 32 33 39 37
32 37 39 40 42 42 44 46 48 49 49 52 55 52 53 51 53 48 47 48 51 52 52 45 42 45 47 49 49 40 24 33 35 30 30 34 39 39
33 36 38 40 41 42 44 47 48 49 52 54 53 53 52 50 50 47 47 47 48 47 49 47 44 47 48 43 37 37 37 30 30 33 34 41 42 40
35 38 39 40 42 43 46 47 48 48 49 50 52 52 52 48 51 50 47 47 45 46 49 49 49 44 46 42 44 46 38 30 23 28 37 40 42 30
36 39 40 42 43 44 44 45 47 49 48 49 48 49 52 55 50 49 47 45 43 45 46 49 50 45 41 44 46 49 42 37 28 22 20 20 25 33
Wind_Direction_850mb
334 329 330 323 319 319 317 317 316 315 316 319 319 318 316 315 313 314 312 311 307 314 317 316 315 303 290 280 272 266 265 257 252 250 251 250 253 246
328 322 323 321 319 318 316 313 311 308 307 313 316 316 315 310 312 309 309 308 312 310 313 310 309 303 290 280 279 268 265 261 261 255 242 241 250 252
321 318 318 319 317 317 314 312 309 309 307 309 311 313 311 309 309 309 310 309 309 304 302 298 297 299 287 275 273 273 266 258 256 258 250 241 245 253
317 317 316 315 315 315 312 309 307 308 308 309 312 312 311 310 308 306 306 306 302 304 303 301 303 302 294 274 271 273 269 264 257 255 254 242 239 240
314 312 313 313 314 313 311 308 307 307 308 307 307 311 310 310 312 312 311 311 309 306 301 296 291 289 286 280 274 273 270 268 254 254 252 246 237 237
309 308 310 309 307 306 310 307 306 306 303 303 304 313 317 319 316 313 311 311 309 310 303 294 294 291 280 276 270 267 269 262 256 249 249 249 238 229
310 308 306 298 307 315 308 306 303 300 301 306 309 310 314 318 317 314 312 313 312 310 305 296 289 288 280 279 276 266 267 264 251 246 247 245 245 228
309 306 305 308 306 302 313 302 291 297 302 305 306 308 310 310 315 316 316 315 309 312 310 296 279 279 275 278 275 268 267 261 254 247 246 239 249 237
307 306 306 306 309 302 292 298 305 300 296 303 301 301 302 310 315 315 316 312 308 307 306 293 287 285 282 281 277 274 279 265 250 244 244 233 243 245
304 304 304 306 307 297 298 306 306 302 299 294 292 295 305 314 313 310 307 309 305 309 299 291 296 289 286 285 280 273 275 276 251 235 232 230 236 239
303 305 304 307 298 290 302 310 305 303 300 292 290 305 313 313 311 312 316 315 304 302 305 294 292 292 295 292 285 276 274 276 239 238 223 225 230 234
307 311 308 300 293 302 309 309 305 306 299 301 307 310 310 311 313 320 314 320 314 304 302 293 294 296 299 297 289 284 274 247 236 234 218 220 223 227
312 310 308 303 308 312 310 310 306 303 302 303 308 303 309 311 315 320 325 320 317 316 308 297 291 292 291 295 306 319 314 252 246 236 221 227 228 228
308 306 302 306 315 315 320 314 311 320 318 305 299 304 305 310 316 322 325 324 322 316 323 295 282 278 285 290 292 303 317 243 215 210 220 235 235 238
310 306 308 315 321 321 313 318 322 317 309 309 305 303 302 305 313 321 324 328 327 328 327 346 293 282 271 272 284 292 314 299 267 272 225 191 263 270
308 312 314 323 327 318 319 318 316 314 313 311 308 306 305 305 306 316 325 330 333 331 333 331 340 318 280 276 274 279 288 303 250 282 269 216 206 217
312 313 317 319 314 314 314 316 317 316 316 313 308 309 313 312 308 314 323 327 330 333 335 334 332 332 313 278 265 266 270 287 287 285 280 268 242 233
310 311 315 311 311 313 314 314 316 317 315 313 315 316 311 310 311 313 318 324 325 329 333 337 337 333 322 322 275 266 265 272 276 281 269 264 257 245
308 307 305 307 309 310 311 313 313 313 315 317 314 313 315 314 314 313 314 317 320 326 331 333 339 343 338 328 313 349 250 271 271 263 266 260 258 256
300 301 303 306 307 309 311 311 311 312 314 314 315 314 313 314 312 312 311 310 313 318 325 329 335 337 332 322 315 322 329 294 283 281 271 271 271 270
303 301 303 306 307 308 307 308 310 313 314 315 314 315 313 312 312 309 307 308 310 313 314 319 322 326 328 333 326 316 307 299 292 269 259 262 263 268
300 303 306 305 305 306 307 309 311 311 312 312 310 312 313 309 308 310 309 307 306 305 305 307 318 326 331 329 324 325 324 318 309 274 260 254 249 253
301 304 305 305 305 305 305 306 305 307 309 309 311 309 307 307 306 306 305 305 303 302 304 309 313 319 325 326 327 326 327 338 331 315 297 276 263 257